Time,TemperatureF,DewpointF,PressureIn,WindDirection,WindDirectionDegrees,WindSpeedMPH,WindSpeedGustMPH,Humidity,HourlyPrecipIn,Conditions,Clouds,dailyrainin,SoftwareType,DateUTC
2013-05-02 00:03:00,57.0,29.0,30.37,South,174,5.0,11.0,34,0.00,,,0.00,,2013-05-02 04:03:00,
2013-05-02 00:12:00,57.0,29.0,30.37,South,174,5.0,11.0,34,0.00,,,0.00,,2013-05-02 04:12:00,
2013-05-02 00:23:00,56.0,29.0,30.37,South,191,6.0,10.0,35,0.00,,,0.00,,2013-05-02 04:23:00,
2013-05-02 00:33:00,56.0,29.0,30.37,South,191,4.0,6.0,35,0.00,,,0.00,,2013-05-02 04:33:00,
2013-05-02 00:43:00,56.0,29.0,30.37,South,191,4.0,6.0,35,0.00,,,0.00,,2013-05-02 04:43:00,
2013-05-02 00:52:00,56.0,29.0,30.36,South,178,4.0,6.0,36,0.00,,,0.00,,2013-05-02 04:52:00,
2013-05-02 01:02:00,55.0,30.0,30.36,South,171,3.0,6.0,38,0.00,,,0.00,,2013-05-02 05:02:00,
2013-05-02 01:12:00,55.0,30.0,30.36,South,171,3.0,6.0,38,0.00,,,0.00,,2013-05-02 05:12:00,
2013-05-02 01:22:00,53.0,30.0,30.36,South,188,3.0,5.0,41,0.00,,,0.00,,2013-05-02 05:22:00,
2013-05-02 01:32:00,54.0,30.0,30.36,South,172,6.0,11.0,40,0.00,,,0.00,,2013-05-02 05:32:00,
2013-05-02 01:42:00,54.0,30.0,30.36,South,172,6.0,11.0,40,0.00,,,0.00,,2013-05-02 05:42:00,
2013-05-02 01:52:00,53.0,30.0,30.36,South,181,7.0,10.0,41,0.00,,,0.00,,2013-05-02 05:52:00,
2013-05-02 02:01:00,53.0,32.0,30.36,South,174,6.0,11.0,44,0.00,,,0.00,,2013-05-02 06:01:00,
2013-05-02 02:12:00,53.0,32.0,30.36,South,174,6.0,11.0,44,0.00,,,0.00,,2013-05-02 06:12:00,
2013-05-02 02:22:00,52.0,32.0,30.35,South,174,6.0,12.0,47,0.00,,,0.00,,2013-05-02 06:22:00,
2013-05-02 02:32:00,51.0,34.0,30.36,SSW,197,8.0,13.0,51,0.00,,,0.00,,2013-05-02 06:32:00,
2013-05-02 02:42:00,51.0,34.0,30.36,SSW,197,8.0,13.0,51,0.00,,,0.00,,2013-05-02 06:42:00,
2013-05-02 02:52:00,51.0,34.0,30.36,South,169,6.0,11.0,52,0.00,,,0.00,,2013-05-02 06:52:00,
2013-05-02 03:02:00,50.0,34.0,30.36,South,179,6.0,11.0,54,0.00,,,0.00,,2013-05-02 07:02:00,
2013-05-02 03:11:00,50.0,34.0,30.36,South,179,6.0,11.0,54,0.00,,,0.00,,2013-05-02 07:11:00,
2013-05-02 03:21:00,50.0,35.0,30.36,South,188,6.0,9.0,56,0.00,,,0.00,,2013-05-02 07:21:00,
2013-05-02 03:32:00,49.0,34.0,30.36,South,185,4.0,8.0,57,0.00,,,0.00,,2013-05-02 07:32:00,
2013-05-02 03:42:00,49.0,34.0,30.36,South,185,4.0,8.0,57,0.00,,,0.00,,2013-05-02 07:42:00,
2013-05-02 03:52:00,50.0,35.0,30.36,South,178,4.0,6.0,57,0.00,,,0.00,,2013-05-02 07:52:00,
2013-05-02 04:02:00,49.0,35.0,30.36,South,175,4.0,5.0,58,0.00,,,0.00,,2013-05-02 08:02:00,
2013-05-02 04:11:00,49.0,35.0,30.36,South,175,4.0,5.0,58,0.00,,,0.00,,2013-05-02 08:11:00,
2013-05-02 04:22:00,49.0,35.0,30.36,South,179,2.0,5.0,59,0.00,,,0.00,,2013-05-02 08:22:00,
2013-05-02 04:32:00,49.0,35.0,30.36,SSW,210,2.0,4.0,59,0.00,,,0.00,,2013-05-02 08:32:00,
2013-05-02 04:42:00,49.0,35.0,30.36,SSW,210,2.0,4.0,59,0.00,,,0.00,,2013-05-02 08:42:00,
2013-05-02 04:52:00,48.0,35.0,30.36,South,171,0.0,2.0,60,0.00,,,0.00,,2013-05-02 08:52:00,
2013-05-02 05:02:00,47.0,34.0,30.36,South,170,0.0,1.0,61,0.00,,,0.00,,2013-05-02 09:02:00,
2013-05-02 05:12:00,47.0,34.0,30.36,South,170,0.0,1.0,61,0.00,,,0.00,,2013-05-02 09:12:00,
2013-05-02 05:21:00,45.0,33.0,30.37,South,170,0.0,0.0,62,0.00,,,0.00,,2013-05-02 09:21:00,
2013-05-02 05:33:00,45.0,34.0,30.36,SSE,167,0.0,2.0,64,0.00,,,0.00,,2013-05-02 09:33:00,
2013-05-02 05:42:00,45.0,34.0,30.36,SSE,167,0.0,2.0,64,0.00,,,0.00,,2013-05-02 09:42:00,
2013-05-02 05:52:00,45.0,34.0,30.36,SSE,167,0.0,1.0,65,0.00,,,0.00,,2013-05-02 09:52:00,
2013-05-02 06:03:00,45.0,34.0,30.37,SSE,167,1.0,1.0,66,0.00,,,0.00,,2013-05-02 10:03:00,
2013-05-02 06:12:00,45.0,34.0,30.37,SSE,167,1.0,1.0,66,0.00,,,0.00,,2013-05-02 10:12:00,
2013-05-02 06:23:00,45.0,35.0,30.37,SSE,167,0.0,1.0,67,0.00,,,0.00,,2013-05-02 10:23:00,
2013-05-02 06:33:00,44.0,33.0,30.37,SSE,167,0.0,0.0,66,0.00,,,0.00,,2013-05-02 10:33:00,
2013-05-02 06:42:00,44.0,33.0,30.37,SSE,167,0.0,0.0,66,0.00,,,0.00,,2013-05-02 10:42:00,
2013-05-02 06:52:00,45.0,35.0,30.37,SSE,167,0.0,0.0,67,0.00,,,0.00,,2013-05-02 10:52:00,
2013-05-02 07:02:00,45.0,34.0,30.37,SSE,166,0.0,0.0,66,0.00,,,0.00,,2013-05-02 11:02:00,
2013-05-02 07:12:00,45.0,34.0,30.37,SSE,166,0.0,0.0,66,0.00,,,0.00,,2013-05-02 11:12:00,
2013-05-02 07:22:00,45.0,35.0,30.37,SSE,166,0.0,0.0,67,0.00,,,0.00,,2013-05-02 11:22:00,
2013-05-02 07:32:00,45.0,35.0,30.38,SSE,157,0.0,0.0,67,0.00,,,0.00,,2013-05-02 11:32:00,
2013-05-02 07:42:00,45.0,35.0,30.38,SSE,157,0.0,0.0,67,0.00,,,0.00,,2013-05-02 11:42:00,
2013-05-02 07:52:00,47.0,35.0,30.39,SSE,161,0.0,1.0,64,0.00,,,0.00,,2013-05-02 11:52:00,
2013-05-02 08:01:00,47.0,35.0,30.39,SSE,163,0.0,0.0,62,0.00,,,0.00,,2013-05-02 12:01:00,
2013-05-02 08:12:00,47.0,35.0,30.39,SSE,163,0.0,0.0,62,0.00,,,0.00,,2013-05-02 12:12:00,
2013-05-02 08:22:00,47.0,36.0,30.39,SE,143,0.0,2.0,65,0.00,,,0.00,,2013-05-02 12:22:00,
2013-05-02 08:32:00,50.0,37.0,30.40,South,176,1.0,3.0,61,0.00,,,0.00,,2013-05-02 12:32:00,
2013-05-02 08:42:00,50.0,37.0,30.40,South,176,1.0,3.0,61,0.00,,,0.00,,2013-05-02 12:42:00,
2013-05-02 08:52:00,51.0,37.0,30.40,South,184,2.0,5.0,59,0.00,,,0.00,,2013-05-02 12:52:00,
2013-05-02 09:01:00,52.0,37.0,30.40,South,177,1.0,3.0,57,0.00,,,0.00,,2013-05-02 13:01:00,
2013-05-02 09:11:00,52.0,37.0,30.40,South,177,1.0,3.0,57,0.00,,,0.00,,2013-05-02 13:11:00,
2013-05-02 09:22:00,54.0,38.0,30.40,SSE,163,2.0,5.0,54,0.00,,,0.00,,2013-05-02 13:22:00,
2013-05-02 09:32:00,54.0,37.0,30.40,SSW,203,2.0,5.0,53,0.00,,,0.00,,2013-05-02 13:32:00,
2013-05-02 09:42:00,54.0,37.0,30.40,SSW,203,2.0,5.0,53,0.00,,,0.00,,2013-05-02 13:42:00,
2013-05-02 09:52:00,56.0,38.0,30.41,SE,139,4.0,8.0,51,0.00,,,0.00,,2013-05-02 13:52:00,
2013-05-02 10:02:00,57.0,39.0,30.41,SE,131,3.0,7.0,50,0.00,,,0.00,,2013-05-02 14:02:00,
2013-05-02 10:11:00,57.0,39.0,30.41,SE,131,3.0,7.0,50,0.00,,,0.00,,2013-05-02 14:11:00,
2013-05-02 10:22:00,58.0,37.0,30.41,SE,135,6.0,13.0,45,0.00,,,0.00,,2013-05-02 14:22:00,
2013-05-02 10:32:00,58.0,34.0,30.41,SSE,149,8.0,15.0,41,0.00,,,0.00,,2013-05-02 14:32:00,
2013-05-02 10:43:00,58.0,34.0,30.41,SSE,149,8.0,15.0,41,0.00,,,0.00,,2013-05-02 14:43:00,
2013-05-02 10:52:00,59.0,34.0,30.40,South,173,7.0,15.0,39,0.00,,,0.00,,2013-05-02 14:52:00,
2013-05-02 11:02:00,61.0,35.0,30.41,South,169,3.0,12.0,37,0.00,,,0.00,,2013-05-02 15:02:00,
2013-05-02 11:12:00,61.0,35.0,30.41,South,169,3.0,12.0,37,0.00,,,0.00,,2013-05-02 15:12:00,
2013-05-02 11:22:00,61.0,32.0,30.40,SSW,194,7.0,15.0,33,0.00,,,0.00,,2013-05-02 15:22:00,
2013-05-02 11:33:00,62.0,29.0,30.40,South,188,10.0,18.0,28,0.00,,,0.00,,2013-05-02 15:33:00,
2013-05-02 11:43:00,62.0,29.0,30.40,South,188,10.0,18.0,28,0.00,,,0.00,,2013-05-02 15:43:00,
2013-05-02 12:03:00,63.0,33.0,30.40,South,184,5.0,13.0,32,0.00,,,0.00,,2013-05-02 16:03:00,
2013-05-02 12:13:00,63.0,33.0,30.40,South,184,5.0,13.0,32,0.00,,,0.00,,2013-05-02 16:13:00,
2013-05-02 12:23:00,65.0,33.0,30.39,South,178,4.0,12.0,30,0.00,,,0.00,,2013-05-02 16:23:00,
2013-05-02 12:32:00,66.0,31.0,30.39,SSE,148,5.0,15.0,27,0.00,,,0.00,,2013-05-02 16:32:00,
2013-05-02 12:43:00,66.0,31.0,30.39,SSE,148,5.0,15.0,27,0.00,,,0.00,,2013-05-02 16:43:00,
2013-05-02 12:52:00,68.0,30.0,30.38,SSE,159,8.0,16.0,24,0.00,,,0.00,,2013-05-02 16:52:00,
2013-05-02 13:02:00,68.0,31.0,30.37,SSE,166,5.0,14.0,25,0.00,,,0.00,,2013-05-02 17:02:00,
2013-05-02 13:12:00,68.0,31.0,30.37,SSE,166,5.0,14.0,25,0.00,,,0.00,,2013-05-02 17:12:00,
2013-05-02 13:22:00,68.0,31.0,30.36,South,175,4.0,16.0,25,0.00,,,0.00,,2013-05-02 17:22:00,
2013-05-02 13:32:00,70.0,30.0,30.36,South,174,6.0,11.0,23,0.00,,,0.00,,2013-05-02 17:32:00,
2013-05-02 13:42:00,70.0,30.0,30.36,South,174,6.0,11.0,23,0.00,,,0.00,,2013-05-02 17:42:00,
2013-05-02 13:52:00,70.0,25.0,30.36,SSE,167,7.0,13.0,18,0.00,,,0.00,,2013-05-02 17:52:00,
2013-05-02 14:01:00,71.0,28.0,30.35,South,181,5.0,12.0,20,0.00,,,0.00,,2013-05-02 18:01:00,
2013-05-02 14:12:00,71.0,28.0,30.35,South,181,5.0,12.0,20,0.00,,,0.00,,2013-05-02 18:12:00,
2013-05-02 14:22:00,70.0,27.0,30.35,SSE,167,5.0,14.0,20,0.00,,,0.00,,2013-05-02 18:22:00,
2013-05-02 14:32:00,70.0,27.0,30.35,South,176,6.0,13.0,20,0.00,,,0.00,,2013-05-02 18:32:00,
2013-05-02 14:42:00,70.0,27.0,30.35,South,176,6.0,13.0,20,0.00,,,0.00,,2013-05-02 18:42:00,
2013-05-02 14:52:00,71.0,28.0,30.35,SE,143,4.0,11.0,20,0.00,,,0.00,,2013-05-02 18:52:00,
2013-05-02 15:01:00,71.0,28.0,30.34,SSE,162,6.0,14.0,20,0.00,,,0.00,,2013-05-02 19:01:00,
2013-05-02 15:11:00,71.0,28.0,30.34,SSE,162,6.0,14.0,20,0.00,,,0.00,,2013-05-02 19:11:00,
2013-05-02 15:22:00,71.0,25.0,30.34,SSW,200,6.0,13.0,18,0.00,,,0.00,,2013-05-02 19:22:00,
2013-05-02 15:32:00,71.0,23.0,30.33,SSW,198,7.0,14.0,16,0.00,,,0.00,,2013-05-02 19:32:00,
2013-05-02 15:42:00,71.0,23.0,30.33,SSW,198,7.0,14.0,16,0.00,,,0.00,,2013-05-02 19:42:00,
2013-05-02 15:52:00,71.0,24.0,30.32,SSE,168,7.0,13.0,17,0.00,,,0.00,,2013-05-02 19:52:00,
2013-05-02 16:02:00,71.0,25.0,30.32,South,179,6.0,13.0,18,0.00,,,0.00,,2013-05-02 20:02:00,
2013-05-02 16:11:00,71.0,25.0,30.32,South,179,6.0,13.0,18,0.00,,,0.00,,2013-05-02 20:11:00,
2013-05-02 16:22:00,70.0,25.0,30.32,SSE,160,6.0,18.0,18,0.00,,,0.00,,2013-05-02 20:22:00,
2013-05-02 16:32:00,71.0,28.0,30.31,SSE,168,7.0,12.0,20,0.00,,,0.00,,2013-05-02 20:32:00,
2013-05-02 16:42:00,71.0,28.0,30.31,SSE,168,7.0,12.0,20,0.00,,,0.00,,2013-05-02 20:42:00,
2013-05-02 16:52:00,70.0,29.0,30.30,SSE,150,9.0,15.0,22,0.00,,,0.00,,2013-05-02 20:52:00,
2013-05-02 17:01:00,70.0,32.0,30.30,SSE,162,7.0,14.0,24,0.00,,,0.00,,2013-05-02 21:01:00,
2013-05-02 17:12:00,70.0,32.0,30.30,SSE,162,7.0,14.0,24,0.00,,,0.00,,2013-05-02 21:12:00,
2013-05-02 17:21:00,70.0,32.0,30.30,SSW,193,5.0,16.0,24,0.00,,,0.00,,2013-05-02 21:21:00,
2013-05-02 17:33:00,69.0,33.0,30.29,SE,144,6.0,14.0,26,0.00,,,0.00,,2013-05-02 21:33:00,
2013-05-02 17:42:00,69.0,33.0,30.29,SE,144,6.0,14.0,26,0.00,,,0.00,,2013-05-02 21:42:00,
2013-05-02 17:53:00,69.0,33.0,30.29,South,180,8.0,14.0,26,0.00,,,0.00,,2013-05-02 21:53:00,
2013-05-02 18:03:00,68.0,34.0,30.29,SSE,167,10.0,20.0,28,0.00,,,0.00,,2013-05-02 22:03:00,
2013-05-02 18:13:00,68.0,34.0,30.29,SSE,167,10.0,20.0,28,0.00,,,0.00,,2013-05-02 22:13:00,
2013-05-02 18:22:00,68.0,34.0,30.29,SSW,196,7.0,14.0,28,0.00,,,0.00,,2013-05-02 22:22:00,
2013-05-02 18:32:00,68.0,34.0,30.28,South,172,7.0,15.0,28,0.00,,,0.00,,2013-05-02 22:32:00,
2013-05-02 18:42:00,68.0,34.0,30.28,South,172,7.0,15.0,28,0.00,,,0.00,,2013-05-02 22:42:00,
2013-05-02 18:52:00,68.0,35.0,30.28,South,169,7.0,16.0,29,0.00,,,0.00,,2013-05-02 22:52:00,
2013-05-02 19:02:00,68.0,35.0,30.28,SSE,159,5.0,12.0,29,0.00,,,0.00,,2013-05-02 23:02:00,
2013-05-02 19:12:00,68.0,35.0,30.28,SSE,159,5.0,12.0,29,0.00,,,0.00,,2013-05-02 23:12:00,
2013-05-02 19:22:00,67.0,35.0,30.28,South,175,5.0,10.0,30,0.00,,,0.00,,2013-05-02 23:22:00,
2013-05-02 19:32:00,67.0,35.0,30.27,South,176,7.0,11.0,30,0.00,,,0.00,,2013-05-02 23:32:00,
2013-05-02 19:42:00,67.0,35.0,30.27,South,176,7.0,11.0,30,0.00,,,0.00,,2013-05-02 23:42:00,
2013-05-02 19:51:00,66.0,34.0,30.28,SSE,165,5.0,9.0,31,0.00,,,0.00,,2013-05-02 23:51:00,
2013-05-02 20:01:00,66.0,34.0,30.27,SSE,155,6.0,10.0,31,0.00,,,0.00,,2013-05-03 00:01:00,
2013-05-02 20:11:00,66.0,34.0,30.27,SSE,155,6.0,10.0,31,0.00,,,0.00,,2013-05-03 00:11:00,
2013-05-02 20:22:00,66.0,34.0,30.28,SSE,157,6.0,10.0,31,0.00,,,0.00,,2013-05-03 00:22:00,
2013-05-02 20:32:00,66.0,35.0,30.28,South,174,3.0,8.0,32,0.00,,,0.00,,2013-05-03 00:32:00,
2013-05-02 20:42:00,66.0,35.0,30.28,South,174,3.0,8.0,32,0.00,,,0.00,,2013-05-03 00:42:00,
2013-05-02 20:52:00,65.0,34.0,30.28,SSE,155,4.0,14.0,32,0.00,,,0.00,,2013-05-03 00:52:00,
2013-05-02 21:01:00,64.0,34.0,30.28,SSE,167,4.0,12.0,33,0.00,,,0.00,,2013-05-03 01:01:00,
2013-05-02 21:11:00,64.0,34.0,30.28,SSE,167,4.0,12.0,33,0.00,,,0.00,,2013-05-03 01:11:00,
2013-05-02 21:21:00,64.0,35.0,30.28,South,174,7.0,12.0,34,0.00,,,0.00,,2013-05-03 01:21:00,
2013-05-02 21:32:00,63.0,34.0,30.29,South,174,7.0,11.0,34,0.00,,,0.00,,2013-05-03 01:32:00,
2013-05-02 21:42:00,63.0,34.0,30.29,South,174,7.0,11.0,34,0.00,,,0.00,,2013-05-03 01:42:00,
2013-05-02 21:52:00,63.0,35.0,30.29,South,191,6.0,10.0,35,0.00,,,0.00,,2013-05-03 01:52:00,
2013-05-02 22:02:00,62.0,35.0,30.29,SSE,148,6.0,10.0,37,0.00,,,0.00,,2013-05-03 02:02:00,
2013-05-02 22:11:00,62.0,35.0,30.29,SSE,148,6.0,10.0,37,0.00,,,0.00,,2013-05-03 02:11:00,
2013-05-02 22:22:00,62.0,36.0,30.28,South,177,7.0,12.0,38,0.00,,,0.00,,2013-05-03 02:22:00,
2013-05-02 22:32:00,61.0,36.0,30.28,South,182,6.0,10.0,39,0.00,,,0.00,,2013-05-03 02:32:00,
2013-05-02 22:42:00,61.0,36.0,30.28,South,182,6.0,10.0,39,0.00,,,0.00,,2013-05-03 02:42:00,
2013-05-02 22:52:00,61.0,36.0,30.28,South,189,6.0,11.0,39,0.00,,,0.00,,2013-05-03 02:52:00,
2013-05-02 23:01:00,61.0,36.0,30.28,South,176,6.0,10.0,40,0.00,,,0.00,,2013-05-03 03:01:00,
2013-05-02 23:11:00,61.0,36.0,30.28,South,176,6.0,10.0,40,0.00,,,0.00,,2013-05-03 03:11:00,
2013-05-02 23:21:00,60.0,36.0,30.27,South,186,5.0,7.0,41,0.00,,,0.00,,2013-05-03 03:21:00,
2013-05-02 23:33:00,60.0,36.0,30.27,South,187,7.0,10.0,41,0.00,,,0.00,,2013-05-03 03:33:00,
2013-05-02 23:43:00,60.0,36.0,30.27,South,187,7.0,10.0,41,0.00,,,0.00,,2013-05-03 03:43:00,
2013-05-02 23:53:00,60.0,36.0,30.27,SSE,160,4.0,8.0,41,0.00,,,0.00,,2013-05-03 03:53:00,